Regional Weather Roundup
Issued by NWS

Home | Current Version | Previous Version | Graphics & Text | Print | Product List | Glossary On
Versions: 1 2 3 4 5 6 7 8 9 10 11 12 13 14 15 16 17 18 19 20 21 22 23 24 25 26 27 28 29 30 31 32 33 34 35 36 37 38 39 40 41 42 43 44 45 46 47 48 49 50
000
ASUS45 KBOU 250307
RWRCO

WEATHER ROUNDUP FOR COLORADO
NATIONAL WEATHER SERVICE DENVER/BOULDER CO
800 PM MST MON NOV 24 2014

NOTE: "FAIR" INDICATES FEW OR NO CLOUDS BELOW 12000 FEET WITH NO
SIGNIFICANT WEATHER AND/OR OBSTRUCTIONS TO VISIBILITY.

COZ001>005-013-030-031-250400-
...NORTHWEST COLORADO...

CITY           SKY/WX    TMP DP  RH WIND       PRES   REMARKS
CRAIG          PTCLDY    16   7  67 W3        30.30R
HAYDEN         PTCLDY    16   9  73 S3        30.27R
MEEKER         CLOUDY    16  12  84 CALM      30.31R
MOUNT WERNER   NOT AVBL
STEAMBOAT SPGS PTCLDY    18  16  92 E5        30.26R WCI  11
WALDEN         CLOUDY    10   5  79 SE8       30.19S WCI  -1
$$

COZ006>008-011-250400-
...WEST CENTRAL VALLEYS...

CITY           SKY/WX    TMP DP  RH WIND       PRES   REMARKS
GRAND JUNCTION CLEAR     27  13  55 CALM      30.33R
MONTROSE       MOCLDY    26  20  77 SE8       30.36R WCI  18
EAGLE          PTCLDY    12  12 100 CALM      30.33R
RIFLE          PTCLDY    19  13  77 CALM      30.34R
DELTA          PTCLDY    31  20  63 CALM      30.35R
NUCLA          PTCLDY    30  12  47 SE5       30.37R WCI  25
$$

COZ017>023-064>068-250400-
...SOUTHWEST COLORADO...

CITY           SKY/WX    TMP DP  RH WIND       PRES   REMARKS
DURANGO        PTCLDY    26  10  50 NW16      30.28R WCI  14
CORTEZ         CLEAR     20  12  71 E6        30.34R WCI  12
PAGOSA SPRINGS PTCLDY    21   3  45 NW3       30.27R
TELLURIDE      MOCLDY    19   7  58 N7G18     30.27R WCI  10
WOLF CREEK PAS PTCLDY     3  -4  72 MISG      30.16R
$$

COZ009-010-012-014-032>034-037-058>063-250400-
...CENTRAL COLORADO...

CITY           SKY/WX    TMP DP  RH WIND       PRES   REMARKS
ASPEN          CLOUDY    19  17  92 CALM      30.26R
BUENA VISTA    PTCLDY    18   7  61 NW12      30.23R WCI   5
COPPER MTN     CLOUDY     9   0  66 W20G28    30.10R WCI -11
BERTHOUD PASS  CLOUDY     0  -6  78 MISG      30.04R
COTTONWOOD PAS PTCLDY    16   1  53 NW7       30.17S WCI   6
GUNNISON       PTCLDY    10   3  72 N7        30.29R WCI   0
KREMMLING      FLURRIES  18  14  86 CALM      30.26R
LEADVILLE      CLOUDY     6   1  80 VRB5      30.16R WCI  -3
MONARCH PASS     N/A      3   0  85 W13       30.23R WCI -14
SALIDA         PTCLDY    18  10  73 W5        30.32R WCI  11
SUNLIGHT       CLOUDY   N/A N/A N/A CALM      30.22R
WILKERSON PASS NOT AVBL
$$

COZ069>075-250400-
...SAN LUIS VALLEY/SANGRE DE CRISTO MOUNTAINS...

CITY           SKY/WX    TMP DP  RH WIND       PRES   REMARKS
ALAMOSA        PTCLDY    22   5  48 NW13      30.22R WCI  10
LA VETA PASS   PTCLDY    10   7  85 CALM      30.16R
SAGUACHE       NOT AVBL
$$

COZ035-036-038>040-250400-
...NORTHERN COLORADO FRONT RANGE...

CITY           SKY/WX    TMP DP  RH WIND       PRES   REMARKS
DENVER INTL AP PTCLDY    28  14  55 NW8       30.21R WCI  20
DMNS CITY PARK   N/A     29  13  51 E1        30.23S
AURORA         PTCLDY    26  14  60 NW6       30.22R WCI  19
FRONT RANGE AP NOT AVBL
ERIE MUNI ARPT PTCLDY    23  13  66 CALM      30.22S
BOULDER MUN AP PTCLDY    32   9  37 CALM      30.21S
CENTENNIAL     MOCLDY    28  13  53 NW3       30.21R
BROOMFIELD     MOCLDY    28   9  43 W10       30.21R WCI  19
FORT COLLINS   CLEAR     27  10  50 N6        30.22R WCI  20
LONGMONT       CLEAR     27  13  56 S3        30.23S
$$

COZ041-046-047-076>085-087-088-250400-
...PIKES PEAK/PALMER DIVIDE AND SOUTHERN FOOTHILLS...

CITY           SKY/WX    TMP DP  RH WIND       PRES   REMARKS
COLO. SPRINGS  PTCLDY    24  19  81 NW7       30.23R WCI  16
A. F. ACADEMY  PTCLDY    17  14  86 N5        30.21S WCI  10
ELLICOTT       NOT AVBL
FALCON         NOT AVBL
FORT CARSON    CLEAR     25  20  84 N12       30.21R WCI  14
LIMON          CLEAR     20  15  81 N7        30.21R WCI  11
MONUMENT HILL  MOCLDY    21  14  73 NW6       30.19R WCI  14
TRINIDAD       CLOUDY    28  20  71 W6        30.24R WCI  22
$$

COZ042>045-048>051-090-091-250400-
...NORTHEAST COLORADO...

CITY           SKY/WX    TMP DP  RH WIND       PRES   REMARKS
GREELEY ARPT   CLEAR     27  12  54 N8        30.22S WCI  18
AKRON          CLEAR     27  18  69 NW16      30.17R WCI  15
BURLINGTON     PTCLDY    29  19  66 NW16      30.17R WCI  17
WRAY           MOCLDY    31  24  77 W12       30.16R WCI  22
STERLING       CLEAR     32  23  69 NW10      30.17R WCI  24
HOLYOKE        MOCLDY    34  21  60 NW12      30.14R WCI  25
FORT MORGAN    CLEAR     24  17  75 W8        30.21R WCI  15
$$

COZ086-089-092>099-250400-
...SOUTHEAST COLORADO...

CITY           SKY/WX    TMP DP  RH WIND       PRES   REMARKS
PUEBLO         PTCLDY    31  21  66 N15       30.24R WCI  20
LA JUNTA       MOCLDY    33  24  69 N12       30.23R WCI  24
LAMAR          MOCLDY    33  20  58 NW7       30.20R WCI  27
SPRINGFIELD      N/A     33  19  56 N16       30.19R WCI  23
$$


USA.gov is the U.S. government's official web portal to all federal, state and local government web resources and services.